• In India
  • List of Countries
  • For 7 days
  • Water Temperature
  • Satellite Maps
  • Weather Map
  • Weather Widgets
  • user-avatar
    Login

    Hourly Weather Bhubaneswar

    Today, 21 November, Wednesday

    Time Temperature Precipitation Wind Pressure Humidity
    00:00 +25°C° 0 mm 1 mps 759 mmHg 79%
    01:00 +25°C° 0 mm 1 mps 758 mmHg 80%
    02:00 +22°C° 0 mm 0 mps 758 mmHg 81%
    03:00 +22°C° 0 mm 0 mps 758 mmHg 83%
    04:00 +22°C° 0 mm 0 mps 758 mmHg 84%
    05:00 +22°C° 0 mm 0 mps 758 mmHg 84%
    06:00 +22°C° 0 mm 0 mps 759 mmHg 85%
    07:00 +23°C° 0 mm 0 mps 759 mmHg 79%
    08:00 +26°C° 0 mm 1 mps 759 mmHg 73%
    09:00 +28°C° 0 mm 1 mps 760 mmHg 67%
    10:00 +29°C° 0 mm 1 mps 760 mmHg 60%
    11:00 +31°C° 0 mm 1 mps 759 mmHg 52%
    12:00 +32°C° 0 mm 1 mps 759 mmHg 45%
    13:00 +34°C° 0 mm 2 mps 759 mmHg 42%
    14:00 +34°C° 0 mm 2 mps 758 mmHg 40%
    15:00 +34°C° 0 mm 2 mps 757 mmHg 37%
    16:00 +32°C° 0 mm 2 mps 757 mmHg 44%
    17:00 +30°C° 0 mm 2 mps 757 mmHg 51%
    18:00 +28°C° 0 mm 3 mps 757 mmHg 58%
    19:00 +27°C° 0 mm 2 mps 758 mmHg 63%
    20:00 +26°C° 0 mm 2 mps 759 mmHg 69%
    21:00 +26°C° 0 mm 2 mps 759 mmHg 75%
    22:00 +25°C° 0 mm 1 mps 759 mmHg 78%
    23:00 +25°C° 0 mm 1 mps 759 mmHg 80%

    Tomorrow, 22 November, Thursday

    Time Temperature Precipitation Wind Pressure Humidity
    00:00 +24°C° 0 mm 1 mps 759 mmHg 83%
    01:00 +22°C° 0 mm 0 mps 758 mmHg 84%
    02:00 +22°C° 0 mm 0 mps 758 mmHg 85%
    03:00 +22°C° 0 mm 0 mps 758 mmHg 87%
    04:00 +23°C° 0 mm 1 mps 758 mmHg 87%
    05:00 +23°C° 0 mm 1 mps 759 mmHg 88%
    06:00 +23°C° 0 mm 1 mps 759 mmHg 88%
    07:00 +25°C° 0 mm 1 mps 759 mmHg 81%
    08:00 +26°C° 0 mm 1 mps 760 mmHg 73%
    09:00 +28°C° 0 mm 2 mps 761 mmHg 65%
    10:00 +29°C° 0 mm 2 mps 760 mmHg 57%
    11:00 +31°C° 0 mm 2 mps 760 mmHg 49%
    12:00 +32°C° 0 mm 2 mps 760 mmHg 41%
    13:00 +32°C° 0 mm 2 mps 759 mmHg 39%
    14:00 +34°C° 0 mm 2 mps 758 mmHg 38%
    15:00 +34°C° 0 mm 2 mps 758 mmHg 36%
    16:00 +31°C° 0 mm 2 mps 758 mmHg 42%
    17:00 +30°C° 0 mm 2 mps 758 mmHg 48%
    18:00 +28°C° 0 mm 2 mps 758 mmHg 53%
    19:00 +27°C° 0 mm 2 mps 758 mmHg 59%
    20:00 +26°C° 0 mm 2 mps 759 mmHg 64%
    21:00 +25°C° 0 mm 2 mps 760 mmHg 69%
    22:00 +25°C° 0 mm 1 mps 759 mmHg 72%
    23:00 +24°C° 0 mm 1 mps 759 mmHg 76%

    Day after tomorrow, 23 November, Friday

    Time Temperature Precipitation Wind Pressure Humidity
    00:00 +22°C° 0 mm 0 mps 759 mmHg 79%
    01:00 +22°C° 0 mm 0 mps 759 mmHg 80%
    02:00 +23°C° 0 mm 1 mps 759 mmHg 82%
    03:00 +23°C° 0 mm 1 mps 759 mmHg 84%
    04:00 +23°C° 0 mm 1 mps 759 mmHg 85%
    05:00 +23°C° 0 mm 1 mps 759 mmHg 86%
    06:00 +22°C° 0 mm 1 mps 759 mmHg 87%
    07:00 +24°C° 0 mm 1 mps 760 mmHg 80%
    08:00 +26°C° 0 mm 1 mps 761 mmHg 73%
    09:00 +27°C° 0 mm 1 mps 761 mmHg 66%
    10:00 +29°C° 0 mm 1 mps 761 mmHg 58%
    11:00 +30°C° 0 mm 1 mps 760 mmHg 50%
    12:00 +31°C° 0 mm 1 mps 760 mmHg 42%
    13:00 +32°C° 0 mm 2 mps 759 mmHg 39%
    14:00 +32°C° 0 mm 2 mps 758 mmHg 36%
    15:00 +34°C° 0 mm 2 mps 758 mmHg 33%
    16:00 +31°C° 0 mm 2 mps 758 mmHg 38%
    17:00 +29°C° 0 mm 2 mps 758 mmHg 43%
    18:00 +27°C° 0 mm 2 mps 758 mmHg 49%
    19:00 +26°C° 0 mm 2 mps 758 mmHg 53%
    20:00 +25°C° 0 mm 1 mps 759 mmHg 57%
    21:00 +24°C° 0 mm 1 mps 760 mmHg 61%
    22:00 +24°C° 0 mm 1 mps 759 mmHg 66%
    23:00 +23°C° 0 mm 1 mps 759 mmHg 72%

    24 November, Saturday

    Time Temperature Precipitation Wind Pressure Humidity
    00:00 +21°C° 0 mm 0 mps 759 mmHg 77%
    01:00 +23°C° 0 mm 1 mps 759 mmHg 77%
    02:00 +22°C° 0 mm 1 mps 759 mmHg 78%
    03:00 +22°C° 0 mm 1 mps 758 mmHg 79%
    04:00 +22°C° 0 mm 1 mps 758 mmHg 77%
    05:00 +21°C° 0 mm 1 mps 759 mmHg 75%
    06:00 +21°C° 0 mm 1 mps 759 mmHg 73%
    07:00 +23°C° 0 mm 2 mps 760 mmHg 64%
    08:00 +24°C° 0 mm 2 mps 760 mmHg 55%
    09:00 +26°C° 0 mm 2 mps 761 mmHg 46%
    10:00 +28°C° 0 mm 2 mps 761 mmHg 39%
    11:00 +29°C° 0 mm 3 mps 760 mmHg 33%
    12:00 +31°C° 0 mm 3 mps 760 mmHg 26%
    13:00 +31°C° 0 mm 3 mps 759 mmHg 25%
    14:00 +33°C° 0 mm 3 mps 758 mmHg 24%
    15:00 +33°C° 0 mm 3 mps 757 mmHg 23%
    16:00 +30°C° 0 mm 3 mps 757 mmHg 27%
    17:00 +28°C° 0 mm 3 mps 758 mmHg 31%
    18:00 +26°C° 0 mm 2 mps 758 mmHg 35%
    19:00 +25°C° 0 mm 2 mps 758 mmHg 37%
    20:00 +24°C° 0 mm 2 mps 759 mmHg 39%
    21:00 +23°C° 0 mm 1 mps 759 mmHg 41%
    22:00 +23°C° 0 mm 1 mps 759 mmHg 44%
    23:00 +22°C° 0 mm 1 mps 759 mmHg 47%

    25 November, Sunday

    Time Temperature Precipitation Wind Pressure Humidity
    00:00 +21°C° 0 mm 1 mps 759 mmHg 51%
    01:00 +21°C° 0 mm 1 mps 758 mmHg 51%
    02:00 +21°C° 0 mm 1 mps 758 mmHg 52%
    03:00 +20°C° 0 mm 1 mps 758 mmHg 52%
    04:00 +19°C° 0 mm 2 mps 758 mmHg 51%
    05:00 +19°C° 0 mm 2 mps 758 mmHg 50%
    06:00 +18°C° 0 mm 2 mps 759 mmHg 49%
    07:00 +20°C° 0 mm 2 mps 759 mmHg 45%
    08:00 +23°C° 0 mm 2 mps 760 mmHg 42%
    09:00 +25°C° 0 mm 2 mps 760 mmHg 38%
    10:00 +27°C° 0 mm 2 mps 760 mmHg 34%
    11:00 +28°C° 0 mm 2 mps 759 mmHg 30%
    12:00 +30°C° 0 mm 2 mps 759 mmHg 26%
    13:00 +31°C° 0 mm 2 mps 758 mmHg 25%
    14:00 +31°C° 0 mm 2 mps 757 mmHg 24%
    15:00 +31°C° 0 mm 2 mps 756 mmHg 23%
    16:00 +29°C° 0 mm 2 mps 756 mmHg 28%
    17:00 +27°C° 0 mm 2 mps 757 mmHg 32%
    18:00 +25°C° 0 mm 2 mps 757 mmHg 36%
    19:00 +24°C° 0 mm 1 mps 757 mmHg 39%
    20:00 +24°C° 0 mm 1 mps 758 mmHg 42%
    21:00 +23°C° 0 mm 1 mps 758 mmHg 46%
    22:00 +22°C° 0 mm 1 mps 758 mmHg 49%
    23:00 +22°C° 0 mm 1 mps 758 mmHg 52%

    26 November, Monday

    Time Temperature Precipitation Wind Pressure Humidity
    00:00 +21°C° 0 mm 1 mps 758 mmHg 55%
    01:00 +21°C° 0 mm 1 mps 757 mmHg 56%
    02:00 +20°C° 0 mm 1 mps 757 mmHg 57%
    03:00 +20°C° 0 mm 1 mps 757 mmHg 57%
    04:00 +20°C° 0 mm 1 mps 757 mmHg 57%
    05:00 +19°C° 0 mm 1 mps 757 mmHg 57%
    06:00 +18°C° 0 mm 2 mps 758 mmHg 56%
    07:00 +20°C° 0 mm 2 mps 758 mmHg 52%
    08:00 +23°C° 0 mm 2 mps 759 mmHg 47%
    09:00 +25°C° 0 mm 2 mps 759 mmHg 43%
    10:00 +26°C° 0 mm 2 mps 759 mmHg 39%
    11:00 +28°C° 0 mm 2 mps 759 mmHg 36%
    12:00 +30°C° 0 mm 2 mps 758 mmHg 32%
    13:00 +30°C° 0 mm 2 mps 757 mmHg 32%
    14:00 +30°C° 0 mm 2 mps 757 mmHg 31%
    15:00 +31°C° 0 mm 2 mps 756 mmHg 31%
    16:00 +29°C° 0 mm 2 mps 756 mmHg 36%
    17:00 +27°C° 0 mm 2 mps 756 mmHg 42%
    18:00 +25°C° 0 mm 2 mps 757 mmHg 47%
    19:00 +24°C° 0 mm 2 mps 757 mmHg 53%
    20:00 +24°C° 0 mm 2 mps 758 mmHg 58%
    21:00 +23°C° 0 mm 1 mps 758 mmHg 63%
    22:00 +22°C° 0 mm 1 mps 758 mmHg 66%
    23:00 +22°C° 0 mm 1 mps 758 mmHg 69%
    Show more